EDT,Max TemperatureF,Mean TemperatureF,Min TemperatureF,Max Dew PointF,MeanDew PointF,Min DewpointF,Max Humidity, Mean Humidity, Min Humidity, Max Sea Level PressureIn, Mean Sea Level PressureIn, Min Sea Level PressureIn, Max VisibilityMiles, Mean VisibilityMiles, Min VisibilityMiles, Max Wind SpeedMPH, Mean Wind SpeedMPH, Max Gust SpeedMPH,PrecipitationIn, CloudCover, Events, WindDirDegrees
2012-10-1,72,60,48,51,47,44,86,61,41,29.96,29.88,29.82,10,10,10,15,7,22,0.00,0,,249
2012-10-2,71,65,60,61,58,52,96,84,53,30.01,29.99,29.96,10,5,2,6,2,,0.45,8,Rain,33
2012-10-3,80,70,62,70,66,61,100,91,74,30.11,30.05,29.98,7,2,0,7,2,,0.00,8,Fog,30
2012-10-4,84,75,64,68,67,63,97,85,58,30.12,30.07,30.02,10,4,2,6,1,26,0.00,5,Fog-Rain,128
2012-10-5,82,68,55,62,57,53,100,79,40,30.07,30.02,29.92,10,6,0,10,1,17,0.00,1,Fog,247
2012-10-6,79,65,53,60,53,41,90,70,52,29.99,29.86,29.75,10,10,6,16,6,25,0.00,1,,261
2012-10-7,54,50,45,47,42,37,86,73,58,30.12,30.06,30.00,10,10,6,7,3,,0.11,6,Rain,286
2012-10-8,57,47,39,46,41,37,100,77,49,30.27,30.21,30.11,10,10,2,9,2,,0.01,2,Fog-Rain,350
2012-10-9,59,54,50,50,48,45,86,77,72,30.24,30.16,30.08,10,10,6,8,4,,0.01,8,Rain,21
2012-10-10,69,60,53,56,50,36,94,79,48,30.07,29.92,29.79,10,6,1,16,5,24,0.07,6,Rain,329
2012-10-11,63,54,46,37,32,29,61,46,28,30.20,30.13,29.97,10,10,10,14,8,21,0.00,0,,269
2012-10-12,57,50,41,39,33,24,82,58,38,30.43,30.19,30.06,10,10,10,16,5,25,0.00,2,Fog,302
2012-10-13,54,42,30,39,28,19,80,53,28,30.52,30.43,30.30,10,10,10,10,3,,0.00,0,,187
2012-10-14,73,62,52,56,48,41,78,62,41,30.26,30.10,29.94,10,10,10,15,11,21,0.00,3,,203
2012-10-15,73,66,59,63,58,54,94,79,61,29.91,29.73,29.64,10,9,3,20,8,24,0.17,5,Rain,214
2012-10-16,61,53,46,50,37,33,72,54,38,29.92,29.79,29.67,10,10,10,24,10,32,0.00,1,,320
2012-10-17,64,52,39,44,38,36,89,63,37,30.02,29.96,29.92,10,10,10,8,2,,0.00,0,Fog,248
2012-10-18,70,54,42,55,48,39,93,72,50,30.04,29.99,29.93,10,10,9,15,4,22,0.00,3,Fog,126
2012-10-19,71,66,62,64,62,55,94,88,73,29.93,29.78,29.66,10,6,1,18,9,28,0.94,8,Rain,150
2012-10-20,73,64,52,63,53,37,100,76,34,29.82,29.69,29.64,10,6,0,14,4,22,0.00,4,Fog,247
2012-10-21,66,57,48,42,38,34,74,52,32,30.02,29.94,29.84,10,10,10,17,8,22,0.00,0,,279
2012-10-22,70,60,50,43,40,39,67,52,33,30.11,30.05,30.00,10,10,10,14,8,22,0.00,0,,283
2012-10-23,64,55,46,53,47,42,87,72,47,30.13,30.08,30.06,10,10,10,6,1,,0.02,5,Rain,15
2012-10-24,60,58,55,55,53,50,89,83,72,30.20,30.13,30.09,10,7,3,7,4,,0.02,8,Rain,33
2012-10-25,69,60,55,52,51,48,84,72,59,30.27,30.23,30.20,10,10,10,12,2,30,0.00,8,,100
2012-10-26,70,62,57,56,53,50,81,73,65,30.23,30.17,30.11,10,10,10,6,1,,0.00,8,,7
2012-10-27,66,63,60,57,54,51,87,74,60,30.10,29.99,29.92,10,10,7,8,3,,0.00,5,,55
2012-10-28,60,58,55,52,45,39,78,62,51,29.90,29.80,29.67,10,10,10,16,9,29,0.00,6,,39
2012-10-29,64,60,55,61,53,45,95,81,67,29.63,28.95,28.54,10,6,0,44,22,72,0.37,8,Rain,53
2012-10-30,55,52,48,52,47,41,88,79,72,29.48,29.33,28.95,10,7,2,30,18,41,0.26,8,Rain,168
2012-10-31,50,48,44,40,38,36,80,71,59,29.59,29.53,29.47,10,9,7,13,7,,0.01,7,,215